EW6133 Weather Reports


time (UTC)temp
C
wind
direction
speed
KPH
gust
KPH
rain 1hr
cm
rain 24hr
cm
rain mn
cm
humidity
%
barometer
mb
20260503031402 12 283 0.0 3.2 0.00 0.03 0.00 89 1008.2
20260503030906 12 286 0.0 0.0 0.00 0.03 0.00 89 1008.2
20260503030402 13 286 0.0 0.0 0.00 0.03 0.00 89 1008.3
20260503025905 13 286 0.0 0.0 0.00 0.03 0.00 89 1008.3
20260503025404 13 286 0.0 0.0 0.00 0.03 0.00 89 1008.2
20260503024902 13 286 0.0 0.0 0.00 0.03 0.00 89 1008.3
20260503024423 13 286 0.0 0.0 0.00 0.03 0.00 89 1008.2
20260503024415 13 286 0.0 0.0 0.00 0.03 0.00 89 1008.2
20260503023405 13 286 0.0 0.0 0.00 0.03 0.00 89 1008.3
20260503022904 13 286 0.0 0.0 0.00 0.03 0.00 89 1008.4
20260503022403 13 287 0.0 0.0 0.00 0.03 0.00 89 1008.4
20260503021903 13 287 0.0 1.6 0.00 0.03 0.00 89 1008.4
20260503021401 13 287 0.0 1.6 0.00 0.03 0.00 89 1008.5
20260503021142 13 33 0.0 3.2 0.00 0.03 0.00 90 1008.6
20260503020641 13 33 0.0 3.2 0.00 0.03 0.00 90 1008.6
20260503015902 13 28 0.0 3.2 0.00 0.03 0.00 90 1008.6
20260503015402 13 184 0.0 1.6 0.00 0.03 0.00 90 1008.6
20260503014903 13 184 0.0 1.6 0.00 0.03 0.00 90 1008.7
20260503014641 13 184 0.0 3.2 0.00 0.03 0.00 90 1008.7
20260503013906 13 184 0.0 3.2 0.00 0.03 0.00 90 1008.7
20260503013403 13 184 0.0 3.2 0.00 0.03 0.00 90 1008.8
20260503012902 13 184 0.0 3.2 0.00 0.03 0.00 89 1008.8
20260503012402 13 185 0.0 3.2 0.00 0.03 0.00 89 1008.9
20260503011902 13 185 0.0 3.2 0.00 0.03 0.00 89 1008.9
20260503011405 13 166 0.0 6.4 0.00 0.03 0.00 90 1008.9
20260503011144 13 166 1.6 6.4 0.00 0.03 0.00 89 1008.9
20260503010403 13 169 0.0 4.8 0.00 0.03 0.00 89 1009.0
20260503005902 13 168 0.0 3.2 0.00 0.03 0.00 89 1009.0
20260503005402 13 169 0.0 3.2 0.00 0.03 0.00 89 1009.0
20260503004904 13 168 0.0 3.2 0.00 0.03 0.00 89 1009.1
20260503004404 13 161 0.0 3.2 0.00 0.03 0.00 89 1009.1
20260503003901 13 161 0.0 6.4 0.00 0.03 0.00 89 1009.1
20260503003402 13 185 0.0 6.4 0.00 0.03 0.00 89 1009.1
20260503002902 13 178 0.0 1.6 0.00 0.03 0.00 88 1009.2
20260503002702 13 178 0.0 1.6 0.00 0.03 0.00 88 1009.2
20260503002656 13 178 0.0 3.2 0.00 0.03 0.00 88 1009.3
20260503001404 13 178 0.0 3.2 0.00 0.03 0.00 88 1009.2
20260503000903 13 178 0.0 3.2 0.00 0.03 0.00 88 1009.3
20260503000403 13 177 0.0 4.8 0.00 0.03 0.00 89 1009.3
20260502235902 13 187 0.0 4.8 0.00 0.03 0.00 89 1009.3
20260502235403 13 116 0.0 3.2 0.00 0.03 0.00 89 1009.4
20260502234905 13 138 0.0 3.2 0.00 0.03 0.00 90 1009.5
20260502234403 13 138 0.0 3.2 0.00 0.03 0.00 90 1009.6
20260502233905 13 138 0.0 3.2 0.00 0.03 0.00 89 1009.5
20260502233423 13 140 0.0 4.8 0.00 0.03 0.00 89 1009.6
20260502233415 13 142 0.0 4.8 0.00 0.03 0.00 89 1009.5
20260502232403 13 108 1.6 4.8 0.00 0.03 0.00 89 1009.5
20260502231902 13 171 1.6 4.8 0.00 0.03 0.00 89 1009.5
20260502231406 13 132 0.0 6.4 0.00 0.03 0.00 89 1009.6
20260502231139 13 58 0.0 6.4 0.00 0.03 0.00 89 1009.6
20260502230401 13 142 0.0 4.8 0.00 0.03 0.00 89 1009.7
20260502225904 13 191 0.0 4.8 0.00 0.03 0.03 89 1009.6
20260502225402 13 105 1.6 6.4 0.00 0.03 0.03 89 1009.6
20260502224905 13 175 1.6 6.4 0.00 0.03 0.03 89 1009.5
20260502224403 13 154 1.6 6.4 0.00 0.03 0.03 89 1009.6
20260502223902 13 145 0.0 4.8 0.00 0.03 0.03 89 1009.6
20260502223403 13 130 0.0 4.8 0.00 0.03 0.03 89 1009.7
20260502222902 13 207 0.0 6.4 0.00 0.03 0.03 89 1009.6
20260502222403 13 103 1.6 8.0 0.00 0.03 0.03 89 1009.6
20260502221904 13 181 1.6 8.0 0.00 0.03 0.03 88 1009.6
20260502221403 13 136 0.0 6.4 0.00 0.03 0.03 88 1009.7
20260502220904 13 142 0.0 4.8 0.00 0.03 0.03 88 1009.6
20260502220402 13 142 0.0 4.8 0.00 0.03 0.03 88 1009.6
20260502215902 13 57 0.0 1.6 0.00 0.03 0.03 87 1009.6
20260502215641 14 57 0.0 3.2 0.00 0.03 0.03 87 1009.6
20260502214903 14 5 0.0 3.2 0.00 0.03 0.03 87 1009.6
20260502214637 14 12 0.0 4.8 0.00 0.03 0.03 87 1009.5
20260502213856 14 55 1.6 4.8 0.00 0.03 0.03 86 1009.7
20260502213350 14 184 1.6 4.8 0.00 0.03 0.03 86 1010.1
20260502212842 14 182 1.6 6.4 0.00 0.03 0.03 86 1010.2
20260502212346 14 102 1.6 6.4 0.00 0.03 0.03 86 1010.3
20260502211843 14 107 0.0 3.2 0.00 0.03 0.03 85 1010.3
20260502211344 15 72 0.0 3.2 0.00 0.03 0.03 85 1010.3
20260502210842 15 74 0.0 4.8 0.00 0.03 0.03 85 1010.4
20260502210616 15 83 0.0 4.8 0.00 0.03 0.03 85 1010.3
20260502205841 15 103 0.0 3.2 0.00 0.03 0.03 84 1010.2
20260502205340 15 190 0.0 3.2 0.00 0.03 0.03 84 1010.2
20260502204839 15 200 0.0 3.2 0.00 0.03 0.03 84 1010.3
20260502204619 15 198 0.0 3.2 0.00 0.03 0.03 84 1010.4
20260502203837 15 98 0.0 6.4 0.00 0.03 0.03 83 1010.5
20260502203615 15 92 0.0 6.4 0.00 0.03 0.03 83 1010.4
20260502202838 15 87 0.0 4.8 0.00 0.03 0.03 83 1010.5
20260502202335 15 38 0.0 6.4 0.00 0.03 0.03 82 1010.5
20260502201834 15 222 1.6 6.4 0.00 0.03 0.03 82 1010.7
20260502201333 15 187 1.6 6.4 0.00 0.03 0.03 82 1010.7
20260502200832 15 127 0.0 3.2 0.00 0.03 0.03 82 1010.5
20260502200333 15 110 0.0 3.2 0.00 0.03 0.03 82 1010.6
20260502195832 15 113 0.0 1.6 0.00 0.03 0.03 82 1010.6
20260502195333 15 113 0.0 1.6 0.00 0.03 0.03 82 1010.6
20260502194832 15 113 0.0 3.2 0.00 0.03 0.03 82 1010.6
20260502194334 15 113 0.0 3.2 0.00 0.03 0.03 82 1010.4
20260502193831 15 123 0.0 3.2 0.00 0.03 0.03 83 1010.6
20260502193331 15 184 0.0 3.2 0.00 0.03 0.03 83 1010.5
20260502192833 15 214 0.0 3.2 0.00 0.03 0.03 84 1010.5
20260502192333 15 121 0.0 4.8 0.00 0.03 0.03 86 1010.5
20260502191834 15 97 0.0 4.8 0.00 0.03 0.03 86 1010.5
20260502191330 15 108 0.0 3.2 0.00 0.03 0.03 87 1010.6
20260502190832 15 109 0.0 0.0 0.03 0.03 0.03 87 1010.5
20260502190330 15 109 0.0 0.0 0.03 0.03 0.03 87 1010.6
20260502185834 15 109 0.0 0.0 0.03 0.03 0.03 86 1010.6
20260502185337 15 109 0.0 0.0 0.03 0.03 0.03 86 1010.7
20260502184833 15 109 0.0 0.0 0.03 0.03 0.03 86 1010.8
20260502184326 15 109 0.0 0.0 0.03 0.03 0.03 86 1010.7
20260502184109 15 109 0.0 1.6 0.03 0.03 0.03 85 1010.8
20260502183322 16 109 0.0 1.6 0.03 0.03 0.03 85 1010.7
20260502182822 16 105 0.0 0.0 0.03 0.03 0.03 84 1010.8
20260502182324 16 105 0.0 0.0 0.03 0.03 0.03 84 1010.9
20260502181822 16 105 0.0 1.6 0.03 0.03 0.03 83 1010.9
20260502181322 16 105 0.0 1.6 0.03 0.03 0.00 82 1010.9
20260502180820 16 105 0.0 1.6 0.00 0.00 0.00 81 1011.1
20260502180318 16 105 0.0 0.0 0.00 0.00 0.00 80 1011.1
20260502170302 20 91 3.2 14.5 0.00 0.00 0.00 56 1010.7
20260502164044 21 40 3.2 14.5 0.00 0.00 0.00 53 1010.8
20260502163306 21 227 3.2 14.5 0.00 0.00 0.00 52 1010.8
20260502162801 21 198 1.6 14.5 0.00 0.00 0.00 50 1010.9
20260502162543 22 163 3.2 8.0 0.00 0.00 0.00 49 1010.9
20260502161803 22 91 1.6 8.0 0.00 0.00 0.00 46 1011.0
20260502161547 22 216 1.6 6.4 0.00 0.00 0.00 45 1011.1
20260502160804 22 148 1.6 4.8 0.00 0.00 0.00 45 1011.2
20260502160304 22 109 1.6 6.4 0.00 0.00 0.00 44 1011.2
20260502152305 24 112 1.6 4.8 0.00 0.00 0.00 40 1011.8
20260502151803 24 117 1.6 14.5 0.00 0.00 0.00 40 1012.0
20260502151306 24 167 1.6 14.5 0.00 0.00 0.00 40 1012.1
20260502150802 24 106 0.0 6.4 0.00 0.00 0.00 41 1012.1
20260502150310 24 109 0.0 4.8 0.00 0.00 0.00 40 1012.1
20260502130258 22 74 1.6 6.4 0.00 0.00 0.00 44 1013.9
20260502123753 22 98 1.6 9.7 0.00 0.00 0.00 45 1014.2
20260502123251 22 305 1.6 9.7 0.00 0.00 0.00 44 1014.3
20260502122751 22 256 1.6 8.0 0.00 0.00 0.00 43 1014.3
20260502122530 22 109 1.6 8.0 0.00 0.00 0.00 44 1014.3
20260502121746 22 54 1.6 6.4 0.00 0.00 0.00 44 1014.4
20260502121245 22 47 1.6 6.4 0.00 0.00 0.00 43 1014.6
20260502121023 22 82 3.2 9.7 0.00 0.00 0.00 43 1014.8
20260502120245 22 157 3.2 9.7 0.00 0.00 0.00 44 1014.9
20260502115743 22 160 1.6 8.0 0.00 0.00 0.00 45 1014.9
20260502115243 21 45 1.6 8.0 0.00 0.00 0.00 48 1015.0
20260502114745 21 281 1.6 8.0 0.00 0.00 0.00 48 1015.1
20260502114503 21 142 1.6 8.0 0.00 0.00 0.00 47 1015.0
20260502113737 21 72 1.6 8.0 0.00 0.00 0.00 49 1015.1
20260502113237 21 126 1.6 8.0 0.00 0.00 0.00 52 1015.3
20260502113017 20 147 3.2 8.0 0.00 0.00 0.00 51 1015.4
20260502112237 20 130 1.6 8.0 0.00 0.00 0.00 52 1015.3
20260502111737 21 194 1.6 8.0 0.00 0.00 0.00 51 1015.5
20260502111235 20 204 1.6 12.9 0.00 0.00 0.00 53 1015.5
20260502110736 20 108 1.6 12.9 0.00 0.00 0.00 53 1015.7
20260502110237 20 186 1.6 6.4 0.00 0.00 0.00 53 1015.6
20260502105739 20 229 3.2 9.7 0.00 0.00 0.00 53 1015.7
20260502105231 20 84 3.2 9.7 0.00 0.00 0.00 53 1015.7
20260502105014 20 166 1.6 6.4 0.00 0.00 0.00 54 1015.8
20260502104233 20 98 1.6 6.4 0.00 0.00 0.00 57 1015.8
20260502104012 20 171 1.6 6.4 0.00 0.00 0.00 57 1015.8
20260502103233 19 111 1.6 4.8 0.00 0.00 0.00 60 1015.9
20260502102730 18 264 1.6 4.8 0.00 0.00 0.00 60 1015.8
20260502102232 18 200 1.6 4.8 0.00 0.00 0.00 58 1015.9
20260502101731 18 145 1.6 4.8 0.00 0.00 0.00 60 1015.9
20260502101304 18 240 1.6 8.0 0.00 0.00 0.00 60 1016.0
20260502101253 18 173 1.6 6.4 0.00 0.00 0.00 60 1015.9
20260502100228 18 66 1.6 8.0 0.00 0.00 0.00 61 1016.0
20260502091206 17 321 0.0 3.2 0.00 0.00 0.00 69 1016.4
20260502090703 16 213 0.0 9.7 0.00 0.00 0.00 71 1016.5
20260502090206 16 213 1.6 9.7 0.00 0.00 0.00 71 1016.6
20260502071133 12 134 0.0 1.6 0.00 0.00 0.00 86 1017.0
20260502070910 12 135 0.0 4.8 0.00 0.00 0.00 87 1017.0
20260502070131 12 135 0.0 4.8 0.00 0.00 0.00 88 1017.0
20260502065632 12 146 0.0 4.8 0.00 0.00 0.00 88 1017.0
20260502065409 11 289 0.0 4.8 0.00 0.00 0.00 90 1017.0
20260502064906 11 289 0.0 4.8 0.00 0.00 0.00 90 1017.0
20260502064132 11 271 0.0 1.6 0.00 0.00 0.00 91 1017.0
20260502063633 11 271 0.0 3.2 0.00 0.00 0.00 91 1017.0
20260502063131 11 271 0.0 3.2 0.00 0.00 0.00 92 1017.0
20260502062624 10 271 0.0 3.2 0.00 0.00 0.00 92 1017.0
20260502062356 10 113 0.0 1.6 0.00 0.00 0.00 92 1017.0
20260502061612 10 113 0.0 1.6 0.00 0.00 0.00 92 1017.0
20260502061347 10 113 0.0 0.0 0.00 0.00 0.00 93 1016.9
20260502060607 10 113 0.0 1.6 0.00 0.00 0.00 93 1016.9
20260502060109 10 113 0.0 1.6 0.00 0.00 0.00 93 1016.8
20260502055605 10 113 0.0 1.6 0.00 0.00 0.00 93 1016.8
20260502055103 10 113 0.0 0.0 0.00 0.00 0.00 93 1016.8
20260502054605 10 113 0.0 0.0 0.00 0.00 0.00 93 1016.9
20260502054102 9 113 0.0 0.0 0.00 0.00 0.00 93 1016.9
20260502053839 9 115 0.0 0.0 0.00 0.00 0.00 93 1016.9
20260502053104 9 115 0.0 0.0 0.00 0.00 0.00 93 1016.9
20260502052604 9 114 0.0 1.6 0.00 0.00 0.00 93 1017.0
20260502052339 9 114 0.0 1.6 0.00 0.00 0.00 93 1017.0
20260502051603 8 114 0.0 1.6 0.00 0.00 0.00 92 1016.9
20260502051346 8 113 0.0 0.0 0.00 0.00 0.00 92 1016.9
20260502050603 8 113 0.0 0.0 0.00 0.00 0.00 92 1016.9
20260502045603 8 140 0.0 0.0 0.00 0.00 0.00 92 1016.8
20260502045102 8 140 0.0 0.0 0.00 0.00 0.00 92 1016.8
20260502044603 8 140 0.0 0.0 0.00 0.00 0.00 92 1016.8
20260502044102 8 140 0.0 0.0 0.00 0.00 0.00 92 1016.7
20260502043843 8 140 0.0 0.0 0.00 0.00 0.00 91 1016.7
20260502043105 8 140 0.0 0.0 0.00 0.00 0.00 91 1016.7
20260502042841 8 140 0.0 0.0 0.00 0.00 0.00 91 1016.7
20260502042103 8 140 0.0 0.0 0.00 0.00 0.00 91 1016.7
20260502041604 8 140 0.0 0.0 0.00 0.00 0.00 91 1016.7
20260502041102 9 140 0.0 0.0 0.00 0.00 0.00 91 1016.8
20260502040604 9 140 0.0 0.0 0.00 0.00 0.00 91 1016.8
20260502035604 9 132 0.0 1.6 0.00 0.00 0.00 90 1016.8
20260502035104 9 132 0.0 0.0 0.00 0.00 0.00 90 1016.9
20260502034603 9 132 0.0 0.0 0.00 0.00 0.00 90 1016.9
20260502034104 9 132 0.0 0.0 0.00 0.00 0.00 90 1017.0
20260502033841 9 132 0.0 0.0 0.00 0.00 0.00 89 1017.0
20260502033102 9 132 0.0 0.0 0.00 0.00 0.00 89 1017.0
20260502032605 9 132 0.0 0.0 0.00 0.00 0.00 89 1016.9
20260502032103 9 132 0.0 0.0 0.00 0.00 0.00 88 1017.0
20260502031602 9 132 0.0 0.0 0.00 0.00 0.00 88 1017.0